Simultaneous Nadir Overpasses (SNOs) Predictions

Prediction of SNOs near US between AQUA and NPP Satellite Orbit:

Table of predicted SNOs near US for the next 10.0 days since TLE Epoch: 5/11/2018
Index Date (AQUA) Time (AQUA) AQUA Lat,Lon Date (NPP) Time (NPP) NPP Lat,Lon Distance(km) Time Diff (sec)
1 05/14/2018 07:19:20 49.93, -75.99 05/14/2018 07:20:05 50.33, -78.15 160.52 45
2 05/14/2018 08:58:13 49.93,-100.71 05/14/2018 09:01:32 50.50,-103.45 204.99 199
3 05/16/2018 18:17:29 49.98, -80.17 05/16/2018 18:10:22 49.70, -81.73 115.77 427
4 05/16/2018 19:56:22 49.97,-104.89 05/16/2018 19:51:50 49.60,-107.05 161.01 272
5 05/16/2018 21:31:32 36.68,-124.98 05/16/2018 21:29:29 36.22,-127.55 235.19 123
6 05/19/2018 09:25:02 20.05,-114.23 05/19/2018 09:16:43 19.67,-114.80 73.16 499




NCC Satellite Simultaneous Nadir Overpasses (SNOs) Prediction Service
